White Plains, CT

3:21 AM EDT on October 15, 2019 (GMT -0400)
Westchester County

Weather History for KHPN - August, 2019

Change the Weather History Date:

Sunday, August 4, 2019

  Actual Average Record
Temperature  
Mean Temperature 75 °F -  
Max Temperature 84 °F 80 °F 93 °F (1989)
Min Temperature 66 °F 63 °F 59 °F (2013)
Cooling Degree Days 10    
Growing Degree Days 25 (Base 50)    
Moisture  
Dew Point 66 °F    
Average Humidity 81    
Maximum Humidity 100    
Minimum Humidity 51    
Precipitation  
Precipitation 0.00 in - - ()
Sea Level Pressure  
Sea Level Pressure 29.93 in    
Wind  
Wind Speed 4 mph (NW)    
Max Wind Speed 17 mph    
Max Gust Speed 33 mph    
Visibility 8 miles    
Events Rain    
Averages and records for this station are not official NWS values.
T = Trace of Precipitation, MM = Missing Value Source: NWS Daily Summary

Daily Weather History Graph

Daily Weather History Graph

Search for Another Location

Airport or City:

Astronomy

Aug. 04, 2019 Rise Set
Actual Time 5:53 AM EDT 8:07 PM EDT
Civil Twilight 5:22 AM EDT 8:38 PM EDT
Nautical Twilight 4:44 AM EDT 9:16 PM EDT
Astronomical Twilight 4:03 AM EDT 9:57 PM EDT
Moon 9:57 AM EDT (8/4) 10:43 PM EDT (8/4)
Length of Visible Light 15h 15m
Length of Day
14h 14m
Waxing Crescent, 18% of the Moon is Illuminated
Aug 4
Waxing Crescent
Aug 7
First Quarter
Aug 15
Full
Aug 23
Last Quarter
Aug 30
New

Hourly Weather History & Observations

Time (EDT) Temp. Heat Index Dew Point Humidity Pressure Visibility Wind Dir Wind Speed Gust Speed Precip Events Conditions
12:56 AM 68.0 °F - 64.4 °F 88% 29.96 in 4.0 mi SW 5.8 mph - N/A Rain Light Rain
1:56 AM 68.0 °F - 64.4 °F 88% 29.96 in 4.0 mi West 5.8 mph - N/A   Clear
2:56 AM 69.8 °F - 66.2 °F 88% 29.97 in 4.0 mi WNW 5.8 mph - N/A   Clear
3:56 AM 66.2 °F - 66.2 °F 100% 29.92 in 10.0 mi Calm Calm - N/A   Clear
4:56 AM 66.2 °F - 66.2 °F 100% 29.92 in 10.0 mi Calm Calm - N/A   Clear
5:39 AM 66.2 °F - 64.4 °F 94% 29.90 in 4.0 mi Calm Calm - N/A   Scattered Clouds
5:56 AM 66.2 °F - 64.4 °F 94% 29.90 in 0.5 mi North 3.5 mph - N/A   Mostly Cloudy
6:56 AM 66.2 °F - 64.4 °F 94% 29.93 in 1.5 mi Calm Calm - N/A   Scattered Clouds
7:28 AM 69.8 °F - 66.2 °F 88% 29.93 in 8.0 mi NW 5.8 mph - N/A   Partly Cloudy
7:56 AM 69.8 °F - 66.2 °F 88% 29.94 in 9.0 mi NW 5.8 mph - N/A   Clear
8:56 AM 73.4 °F - 66.2 °F 78% 29.94 in 10.0 mi NW 4.6 mph - N/A   Clear
9:56 AM 78.8 °F - 64.4 °F 61% 29.94 in 10.0 mi Variable 4.6 mph - N/A   Scattered Clouds
11:56 AM 80.6 °F 81.8 °F 62.6 °F 54% 29.94 in 10.0 mi Calm Calm - N/A   Partly Cloudy
1:56 PM 82.4 °F 83.4 °F 62.6 °F 51% 29.96 in 10.0 mi NW 10.4 mph - N/A   Scattered Clouds
2:56 PM 82.4 °F 83.4 °F 62.6 °F 51% 29.97 in 10.0 mi Calm Calm - N/A   Scattered Clouds
3:56 PM 84.2 °F 85.6 °F 64.4 °F 51% 29.89 in 10.0 mi Calm Calm - N/A   Scattered Clouds
4:23 PM 75.2 °F - 66.2 °F 73% 29.92 in 1.0 mi NW 17.3 mph 33.4 mph N/A   Overcast
4:56 PM 71.6 °F - 69.8 °F 94% 29.90 in 5.0 mi Calm Calm - N/A   Mostly Cloudy
5:56 PM 78.8 °F - 69.8 °F 74% 29.90 in 10.0 mi Calm Calm - N/A   Clear
6:56 PM 78.8 °F - 68.0 °F 69% 29.91 in 10.0 mi Variable 3.5 mph - N/A   Scattered Clouds
7:56 PM 75.2 °F - 71.6 °F 89% 29.92 in 10.0 mi NW 4.6 mph - N/A   Scattered Clouds
8:56 PM 73.4 °F - 69.8 °F 88% 29.93 in 10.0 mi West 3.5 mph - N/A   Partly Cloudy
9:56 PM 73.4 °F - 71.6 °F 94% 29.95 in 10.0 mi WNW 4.6 mph - N/A   Clear
10:56 PM 71.6 °F - 69.8 °F 94% 29.95 in 10.0 mi NW 5.8 mph - N/A   Clear
11:56 PM 71.6 °F - 66.2 °F 83% 29.95 in 10.0 mi NW 4.6 mph - N/A   Clear